DAL2551 KLAX-KPDX

Flight info

Callsign DAL2551
Flight time 1h 55m
Altitude 38000
Route LADYJ4 CSTRO SHIMR LMT MOXEE TMBRS4
Aircraft A319/M-SDE3FGHIRWY/LB1

Departure

Time 2026-04-25 22:18
Airport Los Angeles International Airport (KLAX)

Arrival

Time 2026-04-26 00:13
Airport Portland International Airport (KPDX)
Time Latitude Longitude Altitude Speed Heading
2026-04-25 22:06 33.94713 -118.40701 93 ft 0 kts 205°
2026-04-25 22:10 33.94732 -118.40690 93 ft 4 kts 205°
2026-04-25 22:10 33.94754 -118.40678 92 ft 4 kts 176°
2026-04-25 22:11 33.94769 -118.40691 93 ft 4 kts 100°
2026-04-25 22:11 33.94769 -118.40715 93 ft 4 kts 83°
2026-04-25 22:11 33.94768 -118.40726 93 ft 0 kts 83°
2026-04-25 22:13 33.94768 -118.40720 94 ft 2 kts 83°
2026-04-25 22:14 33.94772 -118.40689 93 ft 5 kts 83°
2026-04-25 22:14 33.94777 -118.40632 93 ft 8 kts 83°
2026-04-25 22:14 33.94827 -118.40600 95 ft 10 kts 353°
2026-04-25 22:14 33.94869 -118.40549 94 ft 11 kts 82°
2026-04-25 22:15 33.94879 -118.40445 94 ft 14 kts 83°
2026-04-25 22:15 33.94891 -118.40319 95 ft 16 kts 83°
2026-04-25 22:15 33.94905 -118.40187 96 ft 16 kts 83°
2026-04-25 22:16 33.94939 -118.39937 93 ft 13 kts 57°
2026-04-25 22:16 33.95022 -118.39918 93 ft 13 kts 335°
2026-04-25 22:16 33.95038 -118.39991 93 ft 4 kts 262°
2026-04-25 22:16 33.95037 -118.39995 93 ft 0 kts 262°
2026-04-25 22:17 33.95034 -118.40024 94 ft 20 kts 262°
2026-04-25 22:17 33.94984 -118.40506 96 ft 92 kts 263°
2026-04-25 22:17 33.94878 -118.41513 99 ft 148 kts 263°
2026-04-25 22:17 33.94755 -118.42832 554 ft 157 kts 260°
2026-04-25 22:18 33.94624 -118.44135 1226 ft 158 kts 261°
2026-04-25 22:18 33.94494 -118.45460 1884 ft 161 kts 262°
2026-04-25 22:18 33.94372 -118.46865 2316 ft 178 kts 264°
2026-04-25 22:18 33.94297 -118.48465 2633 ft 204 kts 266°
2026-04-25 22:19 33.94240 -118.50271 3066 ft 228 kts 267°
2026-04-25 22:19 33.94144 -118.52263 3645 ft 245 kts 264°
2026-04-25 22:19 33.93989 -118.54355 4429 ft 255 kts 264°
2026-04-25 22:19 33.93814 -118.56510 5276 ft 261 kts 264°
2026-04-25 22:20 33.93636 -118.58682 6297 ft 261 kts 264°
2026-04-25 22:20 33.93600 -118.60881 7176 ft 267 kts 277°
2026-04-25 22:20 33.94174 -118.63033 7787 ft 275 kts 296°
2026-04-25 22:20 33.95391 -118.64822 7963 ft 280 kts 318°
2026-04-25 22:21 33.97012 -118.66085 8001 ft 282 kts 325°
2026-04-25 22:21 33.98778 -118.67106 8001 ft 283 kts 339°
2026-04-25 22:21 34.00711 -118.67562 8008 ft 286 kts 354°
2026-04-25 22:21 34.02724 -118.67473 8600 ft 291 kts
2026-04-25 22:22 34.04759 -118.67332 9509 ft 295 kts
2026-04-25 22:22 34.06828 -118.67210 10226 ft 305 kts
2026-04-25 22:22 34.09024 -118.66883 10504 ft 331 kts
2026-04-25 22:22 34.11343 -118.66353 11014 ft 344 kts
2026-04-25 22:23 34.13722 -118.65794 11665 ft 353 kts
2026-04-25 22:23 34.16158 -118.65213 12308 ft 361 kts
2026-04-25 22:23 34.18648 -118.64619 13021 ft 367 kts
2026-04-25 22:23 34.21175 -118.64018 13694 ft 374 kts
2026-04-25 22:24 34.23758 -118.63586 14293 ft 375 kts 358°
2026-04-25 22:24 34.26322 -118.63706 14908 ft 373 kts 347°
2026-04-25 22:24 34.28879 -118.64264 15549 ft 375 kts 343°
2026-04-25 22:24 34.31457 -118.64860 16180 ft 380 kts 343°
2026-04-25 22:25 34.34064 -118.65457 16826 ft 383 kts 343°
2026-04-25 22:25 34.36699 -118.66057 17440 ft 388 kts 343°
2026-04-25 22:25 34.39369 -118.66666 18055 ft 392 kts 343°
2026-04-25 22:25 34.42063 -118.67281 18599 ft 397 kts 343°
2026-04-25 22:26 34.44801 -118.67888 19102 ft 402 kts 344°
2026-04-25 22:26 34.47576 -118.68448 19650 ft 406 kts 345°
2026-04-25 22:26 34.50379 -118.68982 20197 ft 411 kts 345°
2026-04-25 22:26 34.53217 -118.69514 20738 ft 415 kts 345°
2026-04-25 22:27 34.56083 -118.70052 21261 ft 419 kts 344°
2026-04-25 22:27 34.58984 -118.70604 21750 ft 423 kts 344°
2026-04-25 22:27 34.61916 -118.71173 22321 ft 427 kts 344°
2026-04-25 22:27 34.64861 -118.71750 22776 ft 431 kts 343°
2026-04-25 22:28 34.67833 -118.72335 22891 ft 433 kts 343°
2026-04-25 22:28 34.70725 -118.73055 22900 ft 426 kts 336°
2026-04-25 22:28 34.73478 -118.74277 22898 ft 417 kts 327°
2026-04-25 22:28 34.76011 -118.75916 22896 ft 411 kts 322°
2026-04-25 22:29 34.78500 -118.77629 22896 ft 410 kts 322°
2026-04-25 22:29 34.80988 -118.79339 22901 ft 410 kts 322°
2026-04-25 22:29 34.83476 -118.81049 22901 ft 410 kts 322°
2026-04-25 22:30 34.88459 -118.84466 22895 ft 411 kts 322°
2026-04-25 22:30 34.90953 -118.86175 22943 ft 413 kts 322°
2026-04-25 22:30 34.93467 -118.87902 23477 ft 415 kts 322°
2026-04-25 22:30 34.95139 -118.89053 23796 ft 417 kts 322°
2026-04-25 22:31 34.98534 -118.91395 24390 ft 420 kts 321°
2026-04-25 22:31 35.01052 -118.93136 24811 ft 423 kts 322°
2026-04-25 22:31 35.03618 -118.94914 25219 ft 426 kts 322°
2026-04-25 22:31 35.06204 -118.96707 25640 ft 428 kts 322°
2026-04-25 22:32 35.08807 -118.98511 26025 ft 431 kts 322°
2026-04-25 22:32 35.11427 -119.00323 26464 ft 434 kts 322°
2026-04-25 22:32 35.14063 -119.02142 26894 ft 436 kts 322°
2026-04-25 22:32 35.16712 -119.03973 27280 ft 439 kts 322°
2026-04-25 22:33 35.19373 -119.05818 27699 ft 441 kts 323°
2026-04-25 22:33 35.22045 -119.07676 28086 ft 443 kts 323°
2026-04-25 22:33 35.24740 -119.09546 28472 ft 446 kts 323°
2026-04-25 22:33 35.27449 -119.11423 28856 ft 448 kts 323°
2026-04-25 22:34 35.30164 -119.13308 29238 ft 450 kts 323°
2026-04-25 22:34 35.32894 -119.15211 29612 ft 453 kts 323°
2026-04-25 22:34 35.35636 -119.17125 29978 ft 455 kts 323°
2026-04-25 22:34 35.38364 -119.19030 30285 ft 457 kts 323°
2026-04-25 22:35 35.41131 -119.20963 30597 ft 459 kts 323°
2026-04-25 22:35 35.43956 -119.22818 30889 ft 466 kts 329°
2026-04-25 22:35 35.47030 -119.24197 31178 ft 476 kts 339°
2026-04-25 22:35 35.50274 -119.25168 31490 ft 480 kts 340°
2026-04-25 22:36 35.53534 -119.26131 31807 ft 482 kts 340°
2026-04-25 22:36 35.56793 -119.27098 32217 ft 481 kts 340°
2026-04-25 22:36 35.60039 -119.28067 32688 ft 479 kts 340°
2026-04-25 22:36 35.63267 -119.29033 33141 ft 477 kts 340°
2026-04-25 22:37 35.66489 -119.29996 33545 ft 476 kts 340°
2026-04-25 22:37 35.69705 -119.30960 33930 ft 475 kts 340°
2026-04-25 22:37 35.72912 -119.31924 34261 ft 474 kts 340°
2026-04-25 22:37 35.76117 -119.32889 34592 ft 474 kts 340°
2026-04-25 22:38 35.79316 -119.33852 34932 ft 473 kts 340°
2026-04-25 22:38 35.82503 -119.34812 35277 ft 471 kts 340°
2026-04-25 22:38 35.85689 -119.35772 35591 ft 470 kts 340°
2026-04-25 22:38 35.88864 -119.36729 35872 ft 470 kts 340°
2026-04-25 22:39 35.92037 -119.37688 36148 ft 469 kts 340°
2026-04-25 22:39 35.95211 -119.38644 36406 ft 469 kts 340°
2026-04-25 22:39 35.98378 -119.39598 36676 ft 469 kts 340°
2026-04-25 22:39 36.01546 -119.40555 36905 ft 469 kts 340°
2026-04-25 22:40 36.04670 -119.41501 37134 ft 469 kts 340°
2026-04-25 22:40 36.07839 -119.42460 37369 ft 468 kts 340°
2026-04-25 22:40 36.11004 -119.43417 37601 ft 468 kts 340°
2026-04-25 22:40 36.14168 -119.44376 37826 ft 468 kts 340°
2026-04-25 22:41 36.20486 -119.46299 37925 ft 466 kts 340°
2026-04-25 22:41 36.26780 -119.48210 37924 ft 465 kts 340°
2026-04-25 22:42 36.33066 -119.50126 37924 ft 465 kts 340°
2026-04-25 22:42 36.39319 -119.52037 37935 ft 465 kts 340°
2026-04-25 22:43 36.45600 -119.53954 37918 ft 464 kts 340°
2026-04-25 22:43 36.51869 -119.55872 37912 ft 465 kts 340°
2026-04-25 22:44 36.58155 -119.57796 37931 ft 465 kts 340°
2026-04-25 22:44 36.64440 -119.59730 37939 ft 464 kts 340°
2026-04-25 22:45 36.70713 -119.61661 37941 ft 464 kts 340°
2026-04-25 22:45 36.76937 -119.63578 37941 ft 464 kts 340°
2026-04-25 22:46 36.83206 -119.65506 37940 ft 463 kts 340°
2026-04-25 22:46 36.89463 -119.67438 37937 ft 463 kts 340°
2026-04-25 22:47 36.95727 -119.69373 37933 ft 463 kts 340°
2026-04-25 22:47 37.01984 -119.71317 37915 ft 461 kts 340°
2026-04-25 22:48 37.08199 -119.73256 37908 ft 460 kts 340°
2026-04-25 22:48 37.14392 -119.75187 37909 ft 461 kts 340°
2026-04-25 22:49 37.20624 -119.77131 37930 ft 462 kts 341°
2026-04-25 22:49 37.26855 -119.79081 37933 ft 462 kts 341°
2026-04-25 22:50 37.33087 -119.81030 37941 ft 461 kts 340°
2026-04-25 22:50 37.39319 -119.82986 37964 ft 462 kts 341°
2026-04-25 22:51 37.45554 -119.84949 37948 ft 461 kts 341°
2026-04-25 22:51 37.51779 -119.86906 37942 ft 461 kts 341°
2026-04-25 22:52 37.58003 -119.88865 37947 ft 461 kts 341°
2026-04-25 22:52 37.63188 -119.90498 37947 ft 462 kts 341°
2026-04-25 22:53 37.70436 -119.92785 37930 ft 462 kts 341°
2026-04-25 22:53 37.76675 -119.94754 37943 ft 462 kts 341°
2026-04-25 22:54 37.82915 -119.96734 37936 ft 462 kts 341°
2026-04-25 22:54 37.89143 -119.98724 37927 ft 462 kts 341°
2026-04-25 22:55 37.95383 -120.00709 37933 ft 462 kts 341°
2026-04-25 22:55 38.00561 -120.02354 37927 ft 461 kts 340°
2026-04-25 22:56 38.06786 -120.04349 37923 ft 461 kts 340°
2026-04-25 22:56 38.14007 -120.06672 37939 ft 461 kts 340°
2026-04-25 22:57 38.19219 -120.08341 37930 ft 460 kts 340°
2026-04-25 22:57 38.25375 -120.10360 37932 ft 459 kts 339°
2026-04-25 22:58 38.31471 -120.12706 37938 ft 457 kts 337°
2026-04-25 22:58 38.37519 -120.15193 37918 ft 456 kts 337°
2026-04-25 22:59 38.43568 -120.17631 37920 ft 456 kts 338°
2026-04-25 22:59 38.49633 -120.20016 37927 ft 456 kts 338°
2026-04-25 23:00 38.55699 -120.22389 37919 ft 455 kts 338°
2026-04-25 23:00 38.61758 -120.24781 37912 ft 455 kts 338°
2026-04-25 23:01 38.67804 -120.27186 37903 ft 455 kts 338°
2026-04-25 23:01 38.73819 -120.29583 37907 ft 455 kts 338°
2026-04-25 23:02 38.79854 -120.31995 37909 ft 455 kts 337°
2026-04-25 23:02 38.85900 -120.34401 37911 ft 455 kts 337°
2026-04-25 23:03 38.91949 -120.36816 37904 ft 455 kts 337°
2026-04-25 23:03 38.97991 -120.39234 37892 ft 455 kts 337°
2026-04-25 23:04 39.04043 -120.41657 37921 ft 455 kts 338°
2026-04-25 23:04 39.10079 -120.44075 37914 ft 454 kts 338°
2026-04-25 23:05 39.16065 -120.46481 37914 ft 453 kts 338°
2026-04-25 23:05 39.22081 -120.48904 37929 ft 452 kts 338°
2026-04-25 23:06 39.28087 -120.51331 37931 ft 451 kts 338°
2026-04-25 23:06 39.34080 -120.53755 37929 ft 450 kts 338°
2026-04-25 23:07 39.40067 -120.56182 37883 ft 449 kts 338°
2026-04-25 23:07 39.45985 -120.58586 37867 ft 448 kts 338°
2026-04-25 23:08 39.51933 -120.61007 37848 ft 447 kts 338°
2026-04-25 23:08 39.57879 -120.63436 37879 ft 447 kts 337°
2026-04-25 23:09 39.63816 -120.65851 37859 ft 446 kts 338°
2026-04-25 23:09 39.69742 -120.68268 37852 ft 446 kts 337°
2026-04-25 23:10 39.75661 -120.70699 37859 ft 446 kts 337°
2026-04-25 23:10 39.81567 -120.73131 37844 ft 445 kts 337°
2026-04-25 23:11 39.87479 -120.75557 37847 ft 444 kts 337°
2026-04-25 23:11 39.93378 -120.77981 37848 ft 444 kts 337°
2026-04-25 23:12 39.99238 -120.80400 37836 ft 444 kts 337°
2026-04-25 23:12 40.05120 -120.82838 37822 ft 443 kts 337°
2026-04-25 23:13 40.11002 -120.85274 37838 ft 444 kts 337°
2026-04-25 23:13 40.16891 -120.87717 37826 ft 444 kts 337°
2026-04-25 23:14 40.22773 -120.90161 37818 ft 443 kts 337°
2026-04-25 23:14 40.28647 -120.92601 37831 ft 443 kts 337°
2026-04-25 23:15 40.34520 -120.95047 37816 ft 442 kts 337°
2026-04-25 23:15 40.40373 -120.97491 37815 ft 441 kts 337°
2026-04-25 23:16 40.46183 -120.99929 37811 ft 441 kts 337°
2026-04-25 23:16 40.52026 -121.02379 37809 ft 441 kts 337°
2026-04-25 23:17 40.57864 -121.04833 37809 ft 440 kts 337°
2026-04-25 23:17 40.63700 -121.07298 37816 ft 440 kts 337°
2026-04-25 23:18 40.69518 -121.09747 37816 ft 439 kts 337°
2026-04-25 23:18 40.75331 -121.12199 37815 ft 439 kts 336°
2026-04-25 23:19 40.81143 -121.14657 37810 ft 438 kts 336°
2026-04-25 23:19 40.86932 -121.17115 37796 ft 436 kts 336°
2026-04-25 23:20 40.92719 -121.19575 37802 ft 437 kts 336°
2026-04-25 23:20 40.98503 -121.22037 37798 ft 436 kts 336°
2026-04-25 23:21 41.04252 -121.24485 37795 ft 436 kts 336°
2026-04-25 23:21 41.10028 -121.26952 37816 ft 436 kts 337°
2026-04-25 23:22 41.15799 -121.29422 37804 ft 435 kts 336°
2026-04-25 23:23 41.24438 -121.33128 37807 ft 435 kts 337°
2026-04-25 23:23 41.30191 -121.35594 37820 ft 434 kts 337°
2026-04-25 23:24 41.35935 -121.38072 37813 ft 434 kts 336°
2026-04-25 23:24 41.41677 -121.40555 37811 ft 434 kts 337°
2026-04-25 23:25 41.47375 -121.43015 37828 ft 433 kts 337°
2026-04-25 23:25 41.53108 -121.45496 37803 ft 433 kts 337°
2026-04-25 23:26 41.58836 -121.47979 37799 ft 432 kts 337°
2026-04-25 23:26 41.64553 -121.50468 37802 ft 432 kts 337°
2026-04-25 23:27 41.70272 -121.52965 37803 ft 431 kts 337°
2026-04-25 23:27 41.75978 -121.55450 37773 ft 431 kts 337°
2026-04-25 23:28 41.81685 -121.57942 37789 ft 432 kts 337°
2026-04-25 23:28 41.87393 -121.60442 37787 ft 431 kts 337°
2026-04-25 23:29 41.93059 -121.62933 37788 ft 431 kts 337°
2026-04-25 23:29 41.98756 -121.65440 37802 ft 430 kts 338°
2026-04-25 23:30 42.04445 -121.67943 37808 ft 430 kts 337°
2026-04-25 23:30 42.10129 -121.70456 37809 ft 430 kts 337°
2026-04-25 23:31 42.15809 -121.72973 37807 ft 430 kts 337°
2026-04-25 23:31 42.21434 -121.75674 37777 ft 428 kts 335°
2026-04-25 23:32 42.27012 -121.78513 37788 ft 428 kts 335°
2026-04-25 23:32 42.32588 -121.81352 37797 ft 428 kts 335°
2026-04-25 23:33 42.38167 -121.84146 37789 ft 427 kts 336°
2026-04-25 23:33 42.43763 -121.86932 37346 ft 431 kts 336°
2026-04-25 23:33 42.46589 -121.88348 37086 ft 434 kts 335°
2026-04-25 23:34 42.49418 -121.89769 36824 ft 434 kts 335°
2026-04-25 23:34 42.52203 -121.91163 36577 ft 431 kts 336°
2026-04-25 23:34 42.55010 -121.92568 36332 ft 429 kts 336°
2026-04-25 23:34 42.57800 -121.93969 36074 ft 426 kts 336°
2026-04-25 23:35 42.60572 -121.95365 35838 ft 424 kts 336°
2026-04-25 23:35 42.66078 -121.98150 35791 ft 422 kts 335°
2026-04-25 23:36 42.71582 -122.00937 35795 ft 421 kts 336°
2026-04-25 23:36 42.77073 -122.03718 35801 ft 421 kts 336°
2026-04-25 23:37 42.82575 -122.06508 35801 ft 423 kts 336°
2026-04-25 23:37 42.88089 -122.09300 35799 ft 422 kts 336°
2026-04-25 23:38 42.93597 -122.12104 35803 ft 422 kts 336°
2026-04-25 23:38 42.99105 -122.14918 35808 ft 422 kts 336°
2026-04-25 23:39 43.04606 -122.17732 35819 ft 422 kts 337°
2026-04-25 23:39 43.10103 -122.20550 35810 ft 422 kts 336°
2026-04-25 23:40 43.15564 -122.23355 35816 ft 422 kts 337°
2026-04-25 23:40 43.21064 -122.26175 35820 ft 422 kts 337°
2026-04-25 23:41 43.26559 -122.29008 35827 ft 421 kts 337°
2026-04-25 23:41 43.32053 -122.31838 35827 ft 421 kts 337°
2026-04-25 23:42 43.37549 -122.34677 35832 ft 423 kts 337°
2026-04-25 23:42 43.43026 -122.37524 35834 ft 423 kts 337°
2026-04-25 23:43 43.48529 -122.40388 35844 ft 423 kts 337°
2026-04-25 23:43 43.54033 -122.43248 35844 ft 422 kts 337°
2026-04-25 23:44 43.59542 -122.46110 35834 ft 422 kts 338°
2026-04-25 23:44 43.62289 -122.47540 35586 ft 420 kts 338°
2026-04-25 23:44 43.64096 -122.48484 35434 ft 418 kts 338°
2026-04-25 23:44 43.66805 -122.49903 35184 ft 415 kts 338°
2026-04-25 23:45 43.69492 -122.51311 34947 ft 412 kts 338°
2026-04-25 23:45 43.72166 -122.52713 34710 ft 410 kts 338°
2026-04-25 23:45 43.74832 -122.54110 34473 ft 408 kts 338°
2026-04-25 23:45 43.77474 -122.55496 34244 ft 405 kts 338°
2026-04-25 23:46 43.80102 -122.56875 34013 ft 403 kts 338°
2026-04-25 23:46 43.82715 -122.58248 33770 ft 400 kts 338°
2026-04-25 23:46 43.85309 -122.59610 33497 ft 398 kts 339°
2026-04-25 23:46 43.87889 -122.60968 33227 ft 394 kts 339°
2026-04-25 23:47 43.90432 -122.62310 32814 ft 389 kts 339°
2026-04-25 23:47 43.92945 -122.63640 32373 ft 385 kts 339°
2026-04-25 23:47 43.95438 -122.64960 31922 ft 381 kts 339°
2026-04-25 23:47 43.97875 -122.66249 31486 ft 378 kts 339°
2026-04-25 23:48 44.00318 -122.67539 31067 ft 374 kts 340°
2026-04-25 23:48 44.02739 -122.68821 30644 ft 370 kts 340°
2026-04-25 23:48 44.05141 -122.70095 30235 ft 367 kts 340°
2026-04-25 23:48 44.07521 -122.71361 29808 ft 364 kts 340°
2026-04-25 23:49 44.09874 -122.72613 29388 ft 360 kts 340°
2026-04-25 23:49 44.12200 -122.73848 29004 ft 355 kts 341°
2026-04-25 23:49 44.14559 -122.74773 28614 ft 350 kts 351°
2026-04-25 23:49 44.16964 -122.75078 28238 ft 345 kts
2026-04-25 23:50 44.19343 -122.74890 27859 ft 341 kts
2026-04-25 23:50 44.21694 -122.74656 27473 ft 337 kts
2026-04-25 23:50 44.23991 -122.74428 27092 ft 333 kts
2026-04-25 23:50 44.26292 -122.74201 26708 ft 329 kts
2026-04-25 23:51 44.28566 -122.73974 26308 ft 326 kts
2026-04-25 23:51 44.30817 -122.73753 25925 ft 323 kts
2026-04-25 23:51 44.33047 -122.73536 25523 ft 320 kts
2026-04-25 23:51 44.35263 -122.73320 25145 ft 318 kts
2026-04-25 23:52 44.37465 -122.73103 24726 ft 316 kts
2026-04-25 23:52 44.39649 -122.72888 24327 ft 314 kts
2026-04-25 23:52 44.41824 -122.72671 23918 ft 312 kts
2026-04-25 23:52 44.43987 -122.72456 23514 ft 311 kts
2026-04-25 23:53 44.46144 -122.72243 23060 ft 310 kts
2026-04-25 23:53 44.48288 -122.72033 22654 ft 307 kts
2026-04-25 23:53 44.50412 -122.71820 22263 ft 305 kts
2026-04-25 23:53 44.52491 -122.71611 21880 ft 303 kts
2026-04-25 23:54 44.54584 -122.71406 21496 ft 300 kts
2026-04-25 23:54 44.56661 -122.71200 21126 ft 299 kts
2026-04-25 23:54 44.58729 -122.70993 20753 ft 297 kts
2026-04-25 23:54 44.60784 -122.70785 20381 ft 295 kts
2026-04-25 23:55 44.62832 -122.70576 20018 ft 294 kts
2026-04-25 23:55 44.64866 -122.70371 19651 ft 293 kts
2026-04-25 23:55 44.66893 -122.70170 19296 ft 292 kts
2026-04-25 23:55 44.68921 -122.69967 18922 ft 292 kts
2026-04-25 23:56 44.70947 -122.69765 18563 ft 292 kts
2026-04-25 23:56 44.72976 -122.69559 18203 ft 292 kts
2026-04-25 23:56 44.74998 -122.69358 17912 ft 288 kts
2026-04-25 23:56 44.76990 -122.69155 17586 ft 286 kts
2026-04-25 23:57 44.78973 -122.68954 17239 ft 285 kts
2026-04-25 23:57 44.80946 -122.68758 16901 ft 284 kts
2026-04-25 23:57 44.82915 -122.68564 16560 ft 283 kts
2026-04-25 23:57 44.84874 -122.68369 16220 ft 282 kts
2026-04-25 23:58 44.86827 -122.68173 15888 ft 281 kts
2026-04-25 23:58 44.88778 -122.67972 15557 ft 281 kts
2026-04-25 23:58 44.90727 -122.67771 15226 ft 281 kts
2026-04-25 23:58 44.92646 -122.67577 14902 ft 280 kts
2026-04-25 23:59 44.94591 -122.67385 14580 ft 280 kts
2026-04-25 23:59 44.96544 -122.67191 14232 ft 281 kts
2026-04-25 23:59 44.98491 -122.66992 13902 ft 281 kts
2026-04-25 23:59 45.00448 -122.66794 13560 ft 282 kts
2026-04-26 00:00 45.02406 -122.66595 13192 ft 282 kts
2026-04-26 00:00 45.04361 -122.66393 12852 ft 281 kts
2026-04-26 00:00 45.06317 -122.66191 12501 ft 281 kts
2026-04-26 00:00 45.08262 -122.65992 12157 ft 280 kts
2026-04-26 00:01 45.10199 -122.65796 11813 ft 279 kts
2026-04-26 00:01 45.12108 -122.65604 11458 ft 278 kts
2026-04-26 00:01 45.14039 -122.65406 11106 ft 278 kts
2026-04-26 00:01 45.15965 -122.65208 10738 ft 277 kts
2026-04-26 00:02 45.17884 -122.65010 10376 ft 276 kts
2026-04-26 00:02 45.19800 -122.64819 10011 ft 276 kts
2026-04-26 00:02 45.21717 -122.64627 9623 ft 276 kts
2026-04-26 00:02 45.23627 -122.64410 9229 ft 274 kts
2026-04-26 00:03 45.25450 -122.63694 8850 ft 272 kts 24°
2026-04-26 00:03 45.27092 -122.62374 8432 ft 271 kts 32°
2026-04-26 00:03 45.28680 -122.60932 8008 ft 271 kts 32°
2026-04-26 00:03 45.30267 -122.59500 7609 ft 269 kts 32°
2026-04-26 00:04 45.31856 -122.58071 7176 ft 270 kts 31°
2026-04-26 00:04 45.33436 -122.56653 6801 ft 267 kts 31°
2026-04-26 00:04 45.35011 -122.55241 6432 ft 266 kts 31°
2026-04-26 00:04 45.36543 -122.53868 6287 ft 254 kts 31°
2026-04-26 00:05 45.38001 -122.52556 6099 ft 244 kts 31°
2026-04-26 00:05 45.39389 -122.51304 5992 ft 238 kts 31°
2026-04-26 00:05 45.40788 -122.50040 5853 ft 237 kts 31°
2026-04-26 00:05 45.42184 -122.48771 5697 ft 239 kts 33°
2026-04-26 00:06 45.43280 -122.47021 5534 ft 240 kts 62°
2026-04-26 00:06 45.43612 -122.44683 5367 ft 247 kts 93°
2026-04-26 00:06 45.43055 -122.42365 5211 ft 252 kts 118°
2026-04-26 00:06 45.42191 -122.40253 5089 ft 241 kts 116°
2026-04-26 00:07 45.41517 -122.38154 4960 ft 225 kts 98°
2026-04-26 00:07 45.41460 -122.36022 4826 ft 208 kts 73°
2026-04-26 00:07 45.42122 -122.34338 4692 ft 191 kts 39°
2026-04-26 00:07 45.43263 -122.33462 4452 ft 186 kts 11°
2026-04-26 00:08 45.44532 -122.33540 4211 ft 184 kts 342°
2026-04-26 00:08 45.45640 -122.34460 3989 ft 186 kts 326°
2026-04-26 00:08 45.46691 -122.35535 3775 ft 185 kts 327°
2026-04-26 00:08 45.47735 -122.36612 3593 ft 184 kts 327°
2026-04-26 00:09 45.48761 -122.37712 3381 ft 186 kts 325°
2026-04-26 00:09 45.49743 -122.38872 3180 ft 186 kts 322°
2026-04-26 00:09 45.50702 -122.40115 2995 ft 186 kts 319°
2026-04-26 00:09 45.51612 -122.41441 2697 ft 189 kts 315°
2026-04-26 00:10 45.52465 -122.42890 2390 ft 192 kts 310°
2026-04-26 00:10 45.53244 -122.44350 2190 ft 179 kts 308°
2026-04-26 00:10 45.53952 -122.45736 1943 ft 171 kts 309°
2026-04-26 00:10 45.54626 -122.47078 1718 ft 155 kts 307°
2026-04-26 00:11 45.55142 -122.48340 1501 ft 141 kts 302°
2026-04-26 00:11 45.55570 -122.49518 1267 ft 132 kts 301°
2026-04-26 00:11 45.56011 -122.50648 1034 ft 128 kts 304°
2026-04-26 00:11 45.56458 -122.51740 837 ft 128 kts 301°
2026-04-26 00:12 45.56876 -122.52861 629 ft 129 kts 298°
2026-04-26 00:12 45.57311 -122.53988 464 ft 130 kts 302°
2026-04-26 00:12 45.57746 -122.55104 342 ft 128 kts 298°
2026-04-26 00:12 45.58176 -122.56215 177 ft 127 kts 301°
2026-04-26 00:13 45.58605 -122.57313 36 ft 122 kts 301°
2026-04-26 00:13 45.58948 -122.58195 32 ft 78 kts 299°
2026-04-26 00:13 45.59137 -122.58685 33 ft 43 kts 297°
2026-04-26 00:13 45.59211 -122.59013 33 ft 22 kts 273°
2026-04-26 00:14 45.59211 -122.59169 32 ft 12 kts 268°
2026-04-26 00:14 45.59210 -122.59204 32 ft 0 kts 268°
2026-04-26 00:14 45.59209 -122.59223 32 ft 6 kts 267°
2026-04-26 00:14 45.59206 -122.59311 31 ft 11 kts 267°
2026-04-26 00:15 45.59192 -122.59420 30 ft 12 kts 220°
2026-04-26 00:15 45.59150 -122.59460 31 ft 3 kts 226°
2026-04-26 00:15 45.59140 -122.59476 30 ft 1 kts 228°